[[{"header":{"parameterUnit":"m.s-1","parameterCategory":1,"la1":30.2991,"la2":30.254,"lo1":-89.0895,"lo2":-89.0444,"dy":0.0017,"dx":0.0017,"nx":28,"ny":28,"refTime":"2025-06-03T09:00:00:Z","depth":0,"parameterNumber":2,"parameterNumberName":"U-component_of_WINDS"},"data":[0,0,0,0,0,0,0,0,0,0,0,0,0,0,0,0,0,0,0,0,0,0,0,0,0,0,0,0,0,0,0,0,0,0,0,0,0,0,0,0,0,0,0,0,0,0,0,0,0,0,0,0,0,0,0,0,0,0,-2.5535,-2.5535,0,-2.5574,-2.5575,-2.5575,-2.5523,-2.5521,-2.5519,-2.5517,-2.5556,-2.5558,-2.5561,0,0,0,0,0,0,0,0,0,0,0,0,0,-2.5412,-2.5415,-2.5535,-2.5535,-2.5536,-2.5574,-2.5575,-2.5575,-2.5523,-2.5521,-2.5518,-2.5516,-2.5555,-2.5558,-2.5562,0,0,0,0,0,0,0,0,0,0,0,0,0,-2.546,-2.5416,-2.5535,-2.5514,-2.5513,-2.5574,-2.5575,-2.5575,-2.5523,-2.5521,-2.5518,-2.5515,-2.5554,-2.5558,-2.5562,-2.5644,0,0,-2.5575,-2.5577,0,0,0,0,0,0,0,0,-2.5457,-2.5464,-2.5517,-2.5516,-2.5514,-2.5541,-2.5546,-2.5598,-2.5524,-2.5519,-2.5517,-2.5514,-2.5553,-2.5557,-2.5571,-2.5646,-2.5648,-2.5575,-2.5578,-2.5579,-2.5581,0,0,0,0,0,0,0,-2.5454,-2.5462,-2.555,-2.5518,-2.5516,-2.5503,-2.5506,-2.5555,-2.5551,-2.552,-2.5516,-2.5521,-2.5552,-2.5567,-2.5571,-2.5649,-2.5575,-2.5579,-2.5581,-2.5583,-2.5792,-2.5795,0,0,0,0,0,0,-2.5453,-2.546,-2.5549,-2.5551,-2.5478,-2.5507,-2.5511,-2.5535,-2.5551,-2.5551,-2.5524,-2.5519,-2.5561,-2.5566,-2.5572,-2.5668,-2.5579,-2.5583,-2.5586,-2.5789,-2.5793,-2.5796,0,0,0,0,0,0,-2.5451,-2.5462,-2.5547,-2.5505,-2.5515,-2.5512,-2.5539,-2.5537,-2.5552,-2.5554,-2.5553,-2.554,-2.5559,-2.5566,-2.5627,-2.5669,-2.5585,-2.5589,-2.5786,-2.579,-2.5794,-2.5861,0,0,0,0,0,0,-2.5448,-2.5461,-2.5493,-2.5506,-2.5517,-2.5602,-2.5542,-2.554,-2.556,-2.5554,-2.5569,-2.5568,-2.5557,-2.5621,-2.5631,-2.5673,-2.5592,-2.5782,-2.5788,-2.5793,-2.5855,-2.5868,-2.5878,0,0,0,0,0,-2.5443,-2.551,-2.5495,-2.5506,-2.5557,-2.5604,-2.5611,-2.5597,-2.5563,-2.5595,-2.5596,-2.5568,-2.5663,-2.5627,-2.5638,-2.5682,-2.5779,-2.5786,-2.5793,-2.585,-2.5865,-2.5878,0,0,0,0,0,0,-2.5502,-2.5512,-2.5494,-2.5568,-2.5586,-2.5595,-2.5634,-2.5613,-2.5641,-2.5634,-2.5615,-2.5619,-2.5683,-2.5689,-2.5649,-2.5762,-2.5715,-2.5725,-2.5755,-2.577,-2.5781,-2.5777,-2.5596,0,0,0,0,0,-2.5523,-2.5562,-2.5568,-2.5632,-2.5642,-2.5637,-2.5657,-2.5645,-2.5663,-2.567,-2.5675,-2.5693,-2.5726,-2.5749,-2.578,-2.5857,-2.5858,-2.5893,-2.5904,-2.5914,-2.5921,-2.596,-2.5975,-2.5819,-2.5819,-2.5818,0,0,-2.5568,-2.5578,-2.5603,-2.5644,-2.5656,-2.5695,-2.5644,-2.5688,-2.5716,-2.5676,-2.5733,-2.5738,-2.5756,-2.5825,-2.5855,-2.5832,-2.5965,-2.5922,-2.593,-2.5932,-2.5969,-2.5984,-2.5997,-2.5823,-2.5822,-2.5822,0,0,-2.5668,-2.5681,-2.5734,-2.5748,-2.5768,-2.5764,-2.5777,-2.579,-2.5792,-2.5849,-2.5819,-2.5853,-2.5912,-2.5926,-2.594,-2.6047,-2.6021,-2.6058,-2.6116,-2.6155,-2.6167,-2.6178,-2.6213,-2.6227,-2.6066,-2.6066,-2.6066,0,-2.572,-2.5779,-2.5764,-2.581,-2.5828,-2.5795,-2.5848,-2.5862,-2.5891,-2.5904,-2.5878,-2.595,-2.5961,-2.6031,-2.6057,-2.6071,-2.6084,-2.6054,-2.6167,-2.6177,-2.6187,-2.6221,-2.6235,-2.607,-2.6069,-2.6069,-2.6069,0,-2.5841,-2.5882,-2.5923,-2.5952,-2.5975,-2.6024,-2.6017,-2.6042,-2.6028,-2.6027,-2.6085,-2.6096,-2.6128,-2.6145,-2.6132,-2.6213,-2.6198,-2.617,-2.6122,-2.6206,-2.6237,-2.6251,-2.6076,-2.6074,-2.6073,-2.6072,0,0,-2.5977,-2.5998,-2.6013,-2.6025,-2.6045,-2.6076,-2.6124,-2.6155,-2.6176,-2.6198,-2.6236,-2.6287,-2.6261,-2.6278,-2.6266,-2.6301,-2.6381,-2.6268,-2.6268,-2.6286,-2.6469,-2.6488,-2.6504,-2.6366,-2.6368,-2.637,-2.6467,0,-2.6076,-2.6158,-2.6147,-2.6226,-2.6263,-2.6232,-2.6274,-2.629,-2.629,-2.6321,-2.6322,-2.6357,-2.6321,-2.6331,-2.6364,-2.6365,-2.6417,-2.6358,-2.64,-2.6401,-2.6393,-2.652,-2.6541,-2.6631,-2.6479,-2.6481,-2.6483,0,-2.6201,-2.6227,-2.631,-2.6323,-2.6338,-2.6375,-2.6403,-2.6433,-2.6451,-2.6449,-2.6468,-2.645,-2.6497,-2.6451,-2.6514,-2.6474,-2.649,-2.6494,-2.6497,-2.6498,-2.6445,-2.6522,-2.666,-2.6672,-2.6502,-2.6501,-2.6499,0,-2.6289,-2.6345,-2.6401,-2.6413,-2.643,-2.6457,-2.6465,-2.648,-2.65,-2.6524,-2.6536,-2.6566,-2.6582,-2.6605,-2.6596,-2.6563,-2.666,-2.6613,-2.6658,-2.6658,-2.6678,-2.6676,-2.6817,-2.6693,-2.6693,-2.6693,-2.6693,0,-2.6399,-2.645,-2.6441,-2.6475,-2.6531,-2.6518,-2.6574,-2.6578,-2.6592,-2.6626,-2.6602,-2.6634,-2.6621,-2.6652,-2.6646,-2.6698,-2.6706,-2.6704,-2.6701,-2.6705,-2.6705,-2.6713,-2.6706,-2.6696,-2.6696,-2.6695,-2.6694,0,-2.6505,-2.6502,-2.656,-2.6572,-2.6576,-2.6617,-2.6626,-2.6658,-2.6658,-2.6701,-2.671,-2.6709,-2.6744,-2.6738,-2.6777,-2.6773,-2.6837,-2.6828,-2.6831,-2.6828,-2.6872,-2.6867,-2.7021,-2.704,-2.6907,-2.6908,-2.6909,0,-2.6574,-2.6612,-2.6628,-2.665,-2.666,-2.6695,-2.6715,-2.6703,-2.6725,-2.6748,-2.6776,-2.681,-2.6836,-2.6894,-2.6896,-2.6926,-2.6915,-2.6967,-2.6919,-2.6921,-2.6913,-2.691,-2.6912,-2.6976,-2.6977,-2.6979,-2.698,0,-2.6695,-2.6692,-2.6721,-2.6751,-2.6775,-2.6798,-2.6818,-2.6837,-2.6827,-2.6852,-2.6889,-2.6909,-2.6949,-2.6982,-2.701,-2.7017,-2.6996,-2.6995,-2.7007,-2.7009,-2.7008,-2.7007,-2.6854,-2.6991,-2.699,-2.6989,-2.6988,-2.6988,-2.6783,-2.6816,-2.6832,-2.6865,-2.6879,-2.6899,-2.6929,-2.6932,-2.6962,-2.6994,-2.6986,-2.7026,-2.7042,-2.7077,-2.7088,-2.7119,-2.71,-2.7117,-2.7121,-2.7125,-2.7129,-2.7006,-2.7125,-2.7124,-2.7124,-2.7124,-2.7124,0,-2.6901,-2.691,-2.6942,-2.697,-2.6997,-2.6977,-2.6998,-2.7021,-2.7057,-2.7074,-2.71,-2.7141,-2.7173,-2.7178,-2.7208,-2.7232,-2.7223,-2.724,-2.7236,-2.7238,-2.7146,-2.7131,-2.7246,-2.7246,-2.7246,-2.7246,-2.7246,-2.7246,-2.6966,-2.7018,-2.7017,-2.7076,-2.7085,-2.7124,-2.7138,-2.7155,-2.7168,-2.7215,-2.7242,-2.7245,-2.7257,-2.7288,-2.7316,-2.7316,-2.7327,-2.7347,-2.7344,-2.7257,-2.7245,-2.7233,-2.7219,-2.7351,-2.7351,-2.7433,-2.7434,-2.7435]},{"header":{"parameterUnit":"m.s-1","parameterCategory":1,"la1":30.2991,"la2":30.254,"lo1":-89.0895,"lo2":-89.0444,"dy":0.0017,"dx":0.0017,"nx":28,"ny":28,"refTime":"2025-06-03T09:00:00:Z","depth":0,"parameterNumber":3,"parameterNumberName":"V-component_of_WINDS"},"data":[0,0,0,0,0,0,0,0,0,0,0,0,0,0,0,0,0,0,0,0,0,0,0,0,0,0,0,0,0,0,0,0,0,0,0,0,0,0,0,0,0,0,0,0,0,0,0,0,0,0,0,0,0,0,0,0,0,0,1.1405,1.1405,0,1.1412,1.1412,1.1412,1.1384,1.1383,1.1383,1.1382,1.1388,1.1389,1.139,0,0,0,0,0,0,0,0,0,0,0,0,0,1.1366,1.1367,1.1405,1.1405,1.1405,1.1412,1.1412,1.1412,1.1384,1.1383,1.1382,1.1381,1.1388,1.1389,1.139,0,0,0,0,0,0,0,0,0,0,0,0,0,1.1379,1.1367,1.1405,1.1392,1.1391,1.1412,1.1412,1.1412,1.1385,1.1383,1.1382,1.1381,1.1388,1.1389,1.139,1.1424,0,0,1.1395,1.1395,0,0,0,0,0,0,0,0,1.1379,1.1381,1.1394,1.1393,1.1392,1.1396,1.1401,1.1416,1.1385,1.1387,1.1382,1.138,1.1392,1.1393,1.1397,1.1424,1.1425,1.1395,1.1396,1.1396,1.1397,0,0,0,0,0,0,0,1.1378,1.138,1.1408,1.1394,1.1393,1.1386,1.1386,1.1404,1.1396,1.1387,1.1385,1.1386,1.1391,1.1396,1.1397,1.1425,1.1395,1.1396,1.1397,1.1398,1.148,1.1481,0,0,0,0,0,0,1.1379,1.138,1.1407,1.1408,1.1382,1.1387,1.1388,1.1396,1.1396,1.1395,1.1387,1.1385,1.1394,1.1395,1.1397,1.1436,1.1396,1.1398,1.1399,1.1479,1.148,1.1482,0,0,0,0,0,0,1.1378,1.1381,1.1407,1.1393,1.1396,1.1389,1.1399,1.1397,1.1401,1.1396,1.1395,1.1393,1.1393,1.1395,1.1418,1.1436,1.1398,1.14,1.1477,1.1479,1.1481,1.1514,0,0,0,0,0,0,1.1377,1.1381,1.1394,1.1394,1.1397,1.1428,1.14,1.1398,1.1404,1.1401,1.1401,1.14,1.1392,1.1416,1.1419,1.1437,1.1401,1.1475,1.1478,1.148,1.1511,1.1517,1.1522,0,0,0,0,0,1.1376,1.1403,1.1395,1.1398,1.1413,1.1429,1.1431,1.1421,1.1405,1.1418,1.1415,1.14,1.1433,1.1418,1.1422,1.144,1.1474,1.1477,1.148,1.1509,1.1516,1.1522,0,0,0,0,0,0,1.1405,1.1403,1.1394,1.1422,1.1426,1.1424,1.144,1.1428,1.1437,1.1433,1.142,1.1421,1.1446,1.1445,1.1428,1.1473,1.1451,1.1455,1.1472,1.1478,1.1483,1.1482,1.1402,0,0,0,0,0,1.1415,1.1429,1.1426,1.1451,1.1454,1.1447,1.1453,1.1445,1.1449,1.145,1.1449,1.1452,1.1463,1.1471,1.1481,1.1512,1.1511,1.1526,1.1531,1.1536,1.1539,1.1554,1.1561,1.1491,1.1491,1.1491,0,0,1.1436,1.1436,1.1445,1.1457,1.1459,1.1473,1.1448,1.1464,1.1474,1.1452,1.1473,1.1473,1.1476,1.1503,1.1514,1.1503,1.1558,1.154,1.1543,1.1544,1.1558,1.1565,1.1571,1.1493,1.1493,1.1493,0,0,1.148,1.1482,1.1503,1.1506,1.1509,1.1505,1.151,1.151,1.1508,1.1529,1.1513,1.1525,1.1545,1.1548,1.1552,1.1598,1.1584,1.1601,1.1628,1.1644,1.1649,1.1654,1.1669,1.1675,1.1605,1.1605,1.1605,0,1.1505,1.1526,1.1515,1.1532,1.1537,1.1519,1.154,1.1543,1.155,1.1554,1.1542,1.1566,1.1567,1.1593,1.1604,1.1609,1.1614,1.1601,1.1649,1.1654,1.1658,1.1673,1.1679,1.1607,1.1607,1.1606,1.1606,0,1.1556,1.157,1.1587,1.1594,1.1601,1.162,1.1612,1.1621,1.1613,1.1609,1.163,1.1631,1.1641,1.1647,1.1639,1.1672,1.1665,1.1651,1.1629,1.1667,1.168,1.1686,1.161,1.1609,1.1608,1.1608,0,0,1.1618,1.1619,1.1626,1.1628,1.1631,1.1642,1.166,1.167,1.1677,1.1683,1.1697,1.1714,1.1701,1.1706,1.1698,1.1712,1.1747,1.1696,1.1696,1.1705,1.1783,1.1793,1.18,1.1739,1.174,1.1741,1.1783,0,1.1661,1.1692,1.1683,1.1714,1.1727,1.171,1.1725,1.1728,1.1726,1.1736,1.1733,1.1745,1.1728,1.1731,1.1743,1.174,1.1763,1.1737,1.1752,1.1752,1.175,1.1807,1.1817,1.1857,1.1788,1.1789,1.179,0,1.1715,1.1722,1.1754,1.1755,1.176,1.1774,1.1782,1.1793,1.1796,1.1793,1.1798,1.1788,1.1805,1.1784,1.1807,1.179,1.1796,1.1795,1.1797,1.1796,1.1772,1.1808,1.1869,1.1875,1.1798,1.1797,1.1797,0,1.1756,1.1774,1.1796,1.1799,1.18,1.181,1.1811,1.1814,1.182,1.1827,1.1831,1.184,1.1845,1.1852,1.1844,1.1829,1.1868,1.1846,1.1866,1.1866,1.1874,1.1873,1.1936,1.1879,1.1879,1.1879,1.1879,0,1.1804,1.1824,1.1814,1.1827,1.1849,1.1839,1.1861,1.186,1.1862,1.1874,1.1861,1.1872,1.1862,1.1872,1.1867,1.1886,1.1889,1.1887,1.1885,1.1887,1.1887,1.189,1.1886,1.1881,1.188,1.188,1.188,0,1.1853,1.1848,1.187,1.1869,1.187,1.1886,1.1885,1.1897,1.1894,1.1909,1.1912,1.1907,1.1919,1.1912,1.1924,1.192,1.1946,1.1941,1.1945,1.1943,1.1962,1.196,1.2028,1.2036,1.1975,1.1976,1.1976,0,1.1884,1.1899,1.19,1.1907,1.1909,1.1922,1.1928,1.1919,1.1926,1.1931,1.1942,1.1953,1.1961,1.1981,1.1978,1.1987,1.1981,1.2005,1.1983,1.1985,1.198,1.1979,1.198,1.2009,1.2009,1.201,1.201,0,1.1939,1.1935,1.1945,1.1954,1.1962,1.1968,1.1973,1.198,1.1971,1.198,1.1992,1.1998,1.2011,1.2021,1.2029,1.203,1.2019,1.2017,1.2022,1.2024,1.2026,1.2024,1.1956,1.2016,1.2015,1.2015,1.2014,1.2014,1.1979,1.1991,1.1994,1.2005,1.2008,1.2013,1.2024,1.2022,1.2032,1.2042,1.2036,1.205,1.2053,1.2062,1.2065,1.2075,1.2066,1.2073,1.2075,1.2076,1.2079,1.2025,1.2077,1.2077,1.2077,1.2077,1.2076,0,1.2032,1.2033,1.2043,1.2051,1.206,1.2049,1.2054,1.2062,1.2075,1.2078,1.2087,1.2101,1.2111,1.2109,1.2118,1.2127,1.2122,1.213,1.2128,1.2129,1.2087,1.2081,1.2134,1.2134,1.2134,1.2134,1.2134,1.2134,1.206,1.208,1.2077,1.2099,1.2099,1.2113,1.2117,1.2122,1.2124,1.214,1.2149,1.2148,1.2149,1.2158,1.2167,1.2166,1.217,1.218,1.2177,1.2137,1.2132,1.2126,1.2121,1.2181,1.2181,1.2217,1.2218,1.2218]}]]